TIANWANG 1B (TW-1B)
1 40927U 15051C   19119.50355760  .00008885  00000-0  14327-3 0  9995
2 40927  97.1441 165.2279 0008053 194.7108 273.1046 15.53113227202229
TIANWANG 1A (TW-1A)
1 40928U 15051D   19119.48902758  .00002693  00000-0  68417-4 0  9999
2 40928  97.1514 151.9024 0009206 252.6090 242.8113 15.40464126201440
LAPAN A2
1 40931U 15052B   19119.29947351  .00000797  00000-0  21974-4 0  9991
2 40931   5.9975  55.9923 0012380 159.3587 200.7111 14.76606167193806
LQSAT
1 40958U 15057A   19119.43436748 -.00000005  00000-0  68789-5 0  9993
2 40958  97.9018 189.9785 0019138  46.1965 314.0822 14.73074894191404
CHUBUSAT 2
1 41338U 16012B   19119.38872095  .00000312  00000-0  17541-4 0  9990
2 41338  31.0026 104.4441 0013786 324.6566  35.3155 15.00130367175357
CHUBUSAT 3
1 41339U 16012C   19119.36412327  .00000314  00000-0  17640-4 0  9999
2 41339  31.0090 102.7619 0013758 331.8832  28.1055 15.00307426175342
OUFTI-1
1 41458U 16025C   19119.48263279  .00001296  00000-0  69837-4 0  9993
2 41458  98.1015 203.7840 0167651 165.3966 195.2192 15.05627620165021
E-STAR-2
1 41459U 16025D   19119.48730815  .00001551  00000-0  82971-4 0  9997
2 41459  98.1027 203.4807 0169487 166.4630 194.1203 15.05286732164995
AAUSAT 4
1 41460U 16025E   19119.45832232  .00002371  00000-0  12241-3 0  9995
2 41460  98.0961 204.5681 0159077 160.0252 200.7318 15.07088960165109
NUSAT 1
1 41557U 16033B   19119.52543250  .00001216  00000-0  48445-4 0  9991
2 41557  97.4172 207.3233 0015524 113.1252 247.1625 15.27078441162438
BEESAT 4
1 41619U 16040W   19118.72912259 +.00001239 +00000-0 +55656-4 0  9995
2 41619 097.3719 181.8935 0010954 194.2953 165.7975 15.22976212146105
PRATHAM
1 41783U 16059A   19118.71430644 +.00000051 +00000-0 +19204-4 0  9999
2 41783 098.0723 179.4088 0033610 182.0132 178.0940 14.62986252138096
ALSAT 1N
1 41789U 16059G   19119.36143693  .00000071  00000-0  22509-4 0  9996
2 41789  98.0730 181.9261 0028392 169.4111 190.7697 14.64233187138283
NAYIF 1
1 42017U 17008BX  19118.92576469 +.00001358 +00000-0 +56664-4 0  9996
2 42017 097.4068 186.5363 0006048 005.0099 355.1199 15.25370653122187
MAX VALIER SAT
1 42778U 17036P   19118.70644980 +.00000875 +00000-0 +41356-4 0  9996
2 42778 097.3593 177.4841 0013666 049.5966 310.6461 15.21910890102481
